DT_LEITURA;HR_LEITURA;MED-PressaoAtm[hPa];VAL-TempExt[oC];VAL-UmidExt[%UR];VAL-TempInt[oC];VAL-UmidInt[%UR];Dir-Vento[grau];Vel-Vento[m/s];Precipitação[mm/h]
03/05/2026;00:00:00;1012,2;-34,1;26;27,2;81;;;0,0
03/05/2026;00:05:00;1012,2;-34,1;26;27,2;81;;;0,0
03/05/2026;00:10:00;1012,1;-34,1;26;27,2;82;;;0,0
03/05/2026;00:15:00;1012,1;-34,2;26;27,2;82;;;0,0
03/05/2026;00:20:00;1012,1;-34,2;26;27,2;82;;;0,0
03/05/2026;00:25:00;1012,1;-34,2;26;27,2;82;;;0,0
03/05/2026;00:30:00;1012,1;-34,2;26;27,1;82;;;0,0
03/05/2026;00:35:00;1012,1;-34,2;27;27,1;82;;;0,0
03/05/2026;00:40:00;1012,0;-34,2;26;27,1;82;;;0,0
03/05/2026;00:45:00;1011,9;-34,2;26;27,1;82;;;0,0
03/05/2026;00:50:00;1011,8;-34,2;26;27,1;82;;;0,0
03/05/2026;00:55:00;1011,8;-34,2;26;27,1;82;;;0,0
03/05/2026;01:00:00;1011,8;-34,2;26;27,1;82;;;0,0
03/05/2026;01:05:00;1011,7;-34,2;26;27,1;82;;;0,0
03/05/2026;01:10:00;1011,6;-34,2;26;27,1;82;;;0,0
03/05/2026;01:15:00;1011,5;-34,2;26;27,1;82;;;0,2
03/05/2026;01:20:00;1011,5;-34,2;26;27,1;82;;;0,0
03/05/2026;01:25:00;1011,4;-34,3;26;27,0;82;;;0,0
03/05/2026;01:30:00;1011,3;-34,3;26;27,0;82;;;0,0
03/05/2026;01:35:00;1011,3;-34,3;27;27,0;82;;;0,0
03/05/2026;01:40:00;1011,2;-34,3;26;27,0;82;;;0,0
03/05/2026;01:45:00;1011,1;-34,3;26;27,0;82;;;0,0
03/05/2026;01:50:00;1011,0;-34,3;26;27,0;82;;;0,0
03/05/2026;01:55:00;1010,9;-34,3;26;27,0;82;;;0,0
03/05/2026;02:00:00;1010,9;-34,3;26;27,0;82;;;0,0
03/05/2026;02:05:00;1010,9;-34,3;26;27,0;82;;;0,0
03/05/2026;02:10:00;1010,8;-34,3;26;27,0;82;;;0,0
03/05/2026;02:15:00;1010,7;-34,3;26;27,0;82;;;0,0
03/05/2026;02:20:00;1010,6;-34,3;26;27,0;82;;;0,0
03/05/2026;02:25:00;1010,6;-34,3;26;27,0;82;;;0,0
03/05/2026;02:30:00;1010,5;-34,3;26;27,0;82;;;0,0
03/05/2026;02:35:00;1010,5;-34,3;27;27,0;82;;;0,0
03/05/2026;02:40:00;1010,4;-34,3;26;27,0;82;;;0,0
03/05/2026;02:45:00;1010,2;-34,3;26;27,0;82;;;0,0
03/05/2026;02:50:00;1010,2;-34,3;26;27,0;82;;;0,0
03/05/2026;02:55:00;1010,1;-34,3;26;27,0;82;;;0,0
03/05/2026;03:00:00;1010,1;-34,3;26;26,9;82;;;0,0
03/05/2026;03:05:00;1010,1;-34,3;26;26,9;83;;;0,0
03/05/2026;03:10:00;1010,1;-34,4;26;26,8;83;;;0,0
03/05/2026;03:15:00;1010,0;-34,4;26;26,8;83;;;0,0
03/05/2026;03:20:00;1010,0;-34,4;27;26,7;83;;;0,0
03/05/2026;03:25:00;1009,9;-34,4;26;26,7;84;;;0,0
03/05/2026;03:30:00;1009,9;-34,4;26;26,7;84;;;0,0
03/05/2026;03:35:00;1009,9;-34,4;26;26,6;84;;;0,0
03/05/2026;03:40:00;1009,9;-34,4;26;26,6;84;;;0,0
03/05/2026;03:45:00;1009,9;-34,4;26;26,6;85;;;0,0
03/05/2026;03:50:00;1009,9;-34,4;26;26,6;85;;;0,0
03/05/2026;03:55:00;1009,8;-34,4;26;26,5;85;;;0,0
03/05/2026;04:00:00;1009,8;-34,4;26;26,5;85;;;0,0
03/05/2026;04:05:00;1009,8;-34,4;26;26,4;86;;;0,0
03/05/2026;04:10:00;1009,9;-34,5;26;26,3;86;;;0,2
03/05/2026;04:15:00;1009,8;-34,5;26;26,2;87;;;0,4
03/05/2026;04:20:00;1009,8;-34,9;26;26,1;88;;;0,0
03/05/2026;04:25:00;1009,8;-34,8;25;26,1;88;;;0,0
03/05/2026;04:30:00;1009,9;-34,8;25;26,1;88;;;0,2
03/05/2026;04:35:00;1010,0;-34,7;25;26,0;89;;;0,8
03/05/2026;04:40:00;1010,0;-34,7;25;26,0;89;;;1,2
03/05/2026;04:45:00;1010,1;-34,7;25;25,9;89;;;1,6
03/05/2026;04:50:00;1010,1;-34,7;25;25,8;90;;;2,8
03/05/2026;04:55:00;1010,1;-34,7;25;25,7;90;;;1,2
03/05/2026;05:00:00;1010,1;-34,7;25;25,6;90;;;0,4
03/05/2026;05:05:00;1010,2;-34,6;25;25,5;91;;;0,0
03/05/2026;05:10:00;1010,2;-34,6;25;25,4;91;;;0,2
03/05/2026;05:15:00;1010,3;-34,6;25;25,3;91;;;0,0
03/05/2026;05:20:00;1010,2;-34,5;25;25,3;91;;;0,0
03/05/2026;05:25:00;1010,2;-34,5;25;25,2;91;;;0,0
03/05/2026;05:30:00;1010,3;-34,5;25;25,2;91;;;0,0
03/05/2026;05:35:00;1010,3;-34,5;25;25,1;91;;;0,0
03/05/2026;05:40:00;1010,3;-34,5;25;25,1;91;;;0,0
03/05/2026;05:45:00;1010,3;-34,5;25;25,1;92;;;0,0
03/05/2026;05:50:00;1010,4;-34,5;25;25,0;92;;;0,2
03/05/2026;05:55:00;1010,4;-34,5;25;25,0;92;;;0,2
03/05/2026;06:00:00;1010,5;-34,5;25;25,0;92;;;0,4
03/05/2026;06:05:00;1010,6;-34,5;25;24,9;92;;;0,0
03/05/2026;06:10:00;1010,7;-34,4;25;25,0;92;;;0,2
03/05/2026;06:15:00;1010,8;-34,5;25;24,9;92;;;0,0
03/05/2026;06:20:00;1010,9;-34,4;25;24,9;92;;;0,2
03/05/2026;06:25:00;1011,0;-34,4;25;24,9;92;;;0,0
03/05/2026;06:30:00;1011,0;-34,4;25;24,9;92;;;0,0
03/05/2026;06:35:00;1011,0;-34,4;25;24,9;92;;;0,0
03/05/2026;06:40:00;1011,1;-34,4;25;24,9;92;;;0,0
03/05/2026;06:45:00;1011,1;-34,4;25;24,9;92;;;0,0
03/05/2026;06:50:00;1011,1;-34,4;25;25,0;92;;;0,0
03/05/2026;06:55:00;1011,2;-34,4;25;25,0;92;;;0,0
03/05/2026;07:00:00;1011,3;-34,4;25;25,0;92;;;0,0
03/05/2026;07:05:00;1011,4;-34,4;25;25,1;92;;;0,2
03/05/2026;07:10:00;1011,4;-34,4;25;25,1;92;;;0,8
03/05/2026;07:15:00;1011,5;-34,4;25;25,1;92;;;0,0
03/05/2026;07:20:00;1011,5;-34,4;25;25,1;92;;;0,0
03/05/2026;07:25:00;1011,6;-34,4;25;25,2;92;;;0,0
03/05/2026;07:30:00;1011,7;-34,4;25;25,2;92;;;0,0
03/05/2026;07:35:00;1011,7;-34,5;25;25,2;92;;;0,0
03/05/2026;07:40:00;1011,8;-34,4;25;25,2;93;;;0,0
03/05/2026;07:45:00;1011,9;-34,4;25;25,3;92;;;0,0
03/05/2026;07:50:00;1012,0;-34,5;25;25,3;92;;;0,0
03/05/2026;07:55:00;1012,0;-34,5;25;25,3;92;;;0,0
03/05/2026;08:00:00;1012,1;-34,6;25;25,4;93;;;0,0
03/05/2026;08:05:00;1012,2;-34,6;25;25,5;92;;;0,0
03/05/2026;08:10:00;1012,3;-34,7;25;25,5;92;;;0,0
03/05/2026;08:15:00;1012,3;-34,7;25;25,6;92;;;0,0
03/05/2026;08:20:00;1012,4;-34,8;25;25,7;91;;;0,0
03/05/2026;08:25:00;1012,5;-34,8;25;25,8;91;;;0,0
03/05/2026;08:30:00;1012,5;-34,9;25;25,9;91;;;0,0
03/05/2026;08:35:00;1012,7;-34,9;25;26,0;92;;;0,0
03/05/2026;08:40:00;1012,7;-34,9;25;26,2;91;;;0,0
03/05/2026;08:45:00;1012,8;-35,0;25;26,4;91;;;0,0
03/05/2026;08:50:00;1012,8;-35,1;25;26,7;90;;;0,0
03/05/2026;08:55:00;1012,8;-35,2;25;26,8;89;;;0,0
03/05/2026;09:00:00;1012,8;-35,2;25;26,9;89;;;0,0
03/05/2026;09:05:00;1012,8;-35,3;25;27,1;89;;;0,0
03/05/2026;09:10:00;1012,8;-35,3;25;27,3;89;;;0,0
03/05/2026;09:15:00;1012,7;-35,4;25;27,5;88;;;0,0
03/05/2026;09:20:00;1012,8;-35,4;25;27,6;88;;;0,0
03/05/2026;09:25:00;1012,8;-35,4;25;27,7;87;;;0,0
03/05/2026;09:30:00;1012,9;-35,4;25;27,8;87;;;0,0
03/05/2026;09:35:00;1013,0;-35,4;25;27,9;86;;;0,0
03/05/2026;09:40:00;1013,1;-35,4;25;28,1;85;;;0,0
03/05/2026;09:45:00;1013,1;-35,4;25;28,3;84;;;0,0
03/05/2026;09:50:00;1013,2;-35,4;25;28,5;83;;;0,0
03/05/2026;09:55:00;1013,2;-35,3;25;28,6;82;;;0,0
03/05/2026;10:00:00;1013,2;-35,2;25;28,7;81;;;0,0
03/05/2026;10:05:00;1013,2;-35,1;26;28,9;81;;;0,0
03/05/2026;10:10:00;1013,2;-35,1;25;28,9;80;;;0,0
03/05/2026;10:15:00;1013,2;-35,0;25;28,9;79;;;0,0
03/05/2026;10:20:00;1013,2;-34,9;26;29,0;78;;;0,0
03/05/2026;10:25:00;1013,1;-34,9;26;29,2;79;;;0,0
03/05/2026;10:30:00;1013,1;-34,8;26;29,4;77;;;0,0
03/05/2026;10:35:00;1013,0;-34,6;26;29,6;76;;;0,0
03/05/2026;10:40:00;1013,0;-34,3;26;30,1;74;;;0,0
03/05/2026;10:45:00;1013,0;-33,9;26;30,2;73;;;0,0
03/05/2026;10:50:00;1012,9;-33,4;26;30,3;73;;;0,0
03/05/2026;10:55:00;1012,9;-33,2;26;30,4;72;;;0,0
03/05/2026;11:00:00;1012,8;-32,9;25;30,5;72;;;0,0
03/05/2026;11:05:00;1012,7;-32,3;24;30,7;71;;;0,0
03/05/2026;11:10:00;1012,7;-31,6;23;30,9;70;;;0,0
03/05/2026;11:15:00;1012,6;-30,6;22;31,1;70;;;0,0
03/05/2026;11:20:00;1012,5;-29,8;22;31,1;70;;;0,0
03/05/2026;11:25:00;1012,5;-29,1;21;31,1;70;;;0,0
03/05/2026;11:30:00;1012,4;-28,8;21;31,0;71;;;0,0
03/05/2026;11:35:00;1012,4;-27,8;23;31,0;71;;;0,0
03/05/2026;11:40:00;1012,3;-27,0;22;31,2;70;;;0,0
03/05/2026;11:45:00;1012,2;-25,7;21;31,3;70;;;0,0
03/05/2026;11:50:00;1012,1;-24,7;21;31,3;70;;;0,0
03/05/2026;11:55:00;1012,0;-23,9;20;31,3;69;;;0,0
03/05/2026;12:00:00;1012,0;-23,4;20;31,4;69;;;0,0
03/05/2026;12:05:00;1011,8;-21,9;20;31,8;69;;;0,0
03/05/2026;12:10:00;1011,8;-19,9;20;32,2;67;;;0,0
03/05/2026;12:15:00;1011,6;-18,2;20;32,5;65;;;0,0
03/05/2026;12:20:00;1011,5;-16,7;19;32,8;63;;;0,0
03/05/2026;12:25:00;1011,5;-16,7;19;33,0;62;;;0,0
03/05/2026;12:30:00;1011,4;-17,4;19;33,0;62;;;0,0
03/05/2026;12:35:00;1011,3;-17,6;19;33,0;61;;;0,0
03/05/2026;12:40:00;1011,2;-18,0;19;33,1;61;;;0,0
03/05/2026;12:45:00;1011,1;-17,6;18;33,3;61;;;0,0
03/05/2026;12:50:00;1011,0;-17,1;18;33,3;62;;;0,0
03/05/2026;12:55:00;1010,9;-17,8;18;33,2;63;;;0,0
03/05/2026;13:00:00;1010,8;-19,3;18;33,0;62;;;0,0
03/05/2026;13:05:00;1010,7;-18,1;18;32,9;63;;;0,0
03/05/2026;13:10:00;1010,6;-19,4;18;32,9;63;;;0,0
03/05/2026;13:15:00;1010,5;-19,2;18;33,0;63;;;0,0
03/05/2026;13:20:00;1010,4;-18,5;18;33,0;62;;;0,0
03/05/2026;13:25:00;1010,2;-18,2;18;33,2;61;;;0,0
03/05/2026;13:30:00;1010,1;-18,1;17;33,3;61;;;0,0
03/05/2026;13:35:00;1010,0;-18,1;17;33,0;62;;;0,0
03/05/2026;13:40:00;1009,9;-18,2;17;32,6;63;;;0,0
03/05/2026;13:45:00;1009,8;-17,8;17;32,0;65;;;0,0
03/05/2026;13:50:00;1009,7;-18,6;17;31,5;66;;;0,0
03/05/2026;13:55:00;1009,6;-21,5;18;30,8;70;;;0,0
03/05/2026;14:00:00;1009,5;-23,5;24;30,5;73;;;0,0
03/05/2026;14:05:00;1009,5;-24,7;25;30,7;73;;;0,0
03/05/2026;14:10:00;1009,3;-23,3;22;31,2;70;;;0,0
03/05/2026;14:15:00;1009,3;-19,9;20;31,7;69;;;0,0
03/05/2026;14:20:00;1009,2;-16,9;20;32,4;68;;;0,0
03/05/2026;14:25:00;1009,0;-17,3;19;33,2;65;;;0,0
03/05/2026;14:30:00;1008,8;-16,8;19;33,7;64;;;0,0
03/05/2026;14:35:00;1008,7;-17,4;18;33,8;63;;;0,0
03/05/2026;14:40:00;1008,6;-17,4;18;33,7;63;;;0,0
03/05/2026;14:45:00;1008,6;-19,9;17;33,7;64;;;0,0
03/05/2026;14:50:00;1008,5;-20,9;17;34,1;63;;;0,0
03/05/2026;14:55:00;1008,5;-21,5;17;34,4;60;;;0,0
03/05/2026;15:00:00;1008,5;-22,3;17;34,2;59;;;0,0
03/05/2026;15:05:00;1008,4;-22,6;17;33,7;60;;;0,0
03/05/2026;15:10:00;1008,5;-19,4;17;33,3;62;;;0,0
03/05/2026;15:15:00;1008,5;-16,3;17;32,8;63;;;0,0
03/05/2026;15:20:00;1008,5;-15,6;17;32,3;64;;;0,0
03/05/2026;15:25:00;1008,5;-16,4;17;31,9;66;;;0,0
03/05/2026;15:30:00;1008,5;-15,8;17;32,1;65;;;0,0
03/05/2026;15:35:00;1008,5;-14,7;17;32,6;64;;;0,0
03/05/2026;15:40:00;1008,5;-14,4;17;32,9;63;;;0,0
03/05/2026;15:45:00;1008,5;-14,4;17;32,9;64;;;0,0
03/05/2026;15:50:00;1008,5;-14,7;17;32,8;64;;;0,0
03/05/2026;15:55:00;1008,7;-14,7;17;32,7;64;;;0,0
03/05/2026;16:00:00;1008,7;-14,6;16;32,5;63;;;0,0
03/05/2026;16:05:00;1008,7;-14,4;16;32,3;64;;;0,0
03/05/2026;16:10:00;1008,8;-15,3;16;32,1;64;;;0,0
03/05/2026;16:15:00;1008,8;-15,8;16;31,8;65;;;0,0
03/05/2026;16:20:00;1008,9;-16,3;16;31,4;66;;;0,0
03/05/2026;16:25:00;1009,0;-17,3;16;31,2;67;;;0,0
03/05/2026;16:30:00;1009,1;-17,6;16;31,1;67;;;0,0
03/05/2026;16:35:00;1009,2;-17,7;16;31,0;66;;;0,0
03/05/2026;16:40:00;1009,3;-18,6;16;30,9;67;;;0,0
03/05/2026;16:45:00;1009,4;-20,4;16;30,6;68;;;0,0
03/05/2026;16:50:00;1009,5;-22,1;17;30,1;71;;;0,0
03/05/2026;16:55:00;1009,7;-23,4;23;29,4;73;;;0,0
03/05/2026;17:00:00;1009,8;-26,3;25;28,7;76;;;0,0
03/05/2026;17:05:00;1009,9;-29,0;25;28,1;78;;;0,2
03/05/2026;17:10:00;1009,9;-30,5;25;27,7;80;;;0,2
03/05/2026;17:15:00;1009,9;-31,5;25;27,2;82;;;0,4
03/05/2026;17:20:00;1009,9;-32,0;25;26,9;83;;;0,4
03/05/2026;17:25:00;1010,0;-32,3;25;26,6;83;;;0,8
03/05/2026;17:30:00;1010,1;-32,6;25;26,3;85;;;1,0
03/05/2026;17:35:00;1010,2;-33,0;25;26,0;85;;;1,4
03/05/2026;17:40:00;1010,2;-33,3;25;25,8;86;;;0,8
03/05/2026;17:45:00;1010,2;-33,4;25;25,6;87;;;0,4
03/05/2026;17:50:00;1010,3;-33,5;25;25,5;87;;;0,2
03/05/2026;17:55:00;1010,3;-33,6;25;25,4;88;;;0,2
03/05/2026;18:00:00;1010,3;-33,6;25;25,3;88;;;0,2
03/05/2026;18:05:00;1010,3;-33,7;25;25,3;88;;;0,2
03/05/2026;18:10:00;1010,4;-33,7;25;25,3;88;;;0,2
03/05/2026;18:15:00;1010,4;-33,8;25;25,3;88;;;0,2
03/05/2026;18:20:00;1010,4;-33,8;25;25,3;88;;;0,2
03/05/2026;18:25:00;1010,4;-33,9;25;25,3;88;;;0,0
03/05/2026;18:30:00;1010,6;-33,9;25;25,3;88;;;0,2
03/05/2026;18:35:00;1010,6;-34,0;25;25,2;89;;;0,2
03/05/2026;18:40:00;1010,7;-34,0;25;25,3;89;;;0,2
03/05/2026;18:45:00;1010,8;-34,0;25;25,3;89;;;0,2
03/05/2026;18:50:00;1010,8;-34,1;25;25,3;89;;;0,2
03/05/2026;18:55:00;1010,8;-34,1;25;25,2;89;;;0,2
03/05/2026;19:00:00;1010,8;-34,1;25;25,2;89;;;0,2
03/05/2026;19:05:00;1010,8;-34,2;25;25,1;89;;;0,0
03/05/2026;19:10:00;1010,9;-34,2;25;25,1;89;;;0,2
03/05/2026;19:15:00;1010,9;-34,2;25;25,1;90;;;0,0
03/05/2026;19:20:00;1010,9;-34,2;25;25,1;90;;;0,0
03/05/2026;19:25:00;1011,0;-34,2;25;25,1;90;;;0,0
03/05/2026;19:30:00;1011,0;-34,2;25;25,1;90;;;0,2
03/05/2026;19:35:00;1011,0;-34,2;25;25,1;90;;;0,0
03/05/2026;19:40:00;1011,0;-34,3;25;25,1;89;;;0,0
03/05/2026;19:45:00;1011,0;-34,3;25;25,1;90;;;0,0
03/05/2026;19:50:00;1011,0;-34,3;25;25,1;90;;;0,0
03/05/2026;19:55:00;1011,1;-34,3;25;25,1;90;;;0,0
03/05/2026;20:00:00;1011,2;-34,3;25;25,1;90;;;0,0
03/05/2026;20:05:00;1011,2;-34,4;25;25,1;90;;;0,0
03/05/2026;20:10:00;1011,2;-34,4;25;25,1;90;;;0,0
03/05/2026;20:15:00;1011,3;-34,4;25;25,1;90;;;0,0
03/05/2026;20:20:00;1011,3;-34,5;25;25,1;90;;;0,0
03/05/2026;20:25:00;1011,3;-34,5;25;25,1;90;;;0,0
03/05/2026;20:30:00;1011,4;-34,5;25;25,1;90;;;0,0
03/05/2026;20:35:00;1011,5;-34,5;25;25,1;90;;;0,0
03/05/2026;20:40:00;1011,5;-34,5;25;25,1;90;;;0,0
